KC2YYF Weather Reports


time (UTC)temp
C
wind
direction
speed
KPH
gust
KPH
rain 1hr
cm
rain 24hr
cm
rain mn
cm
humidity
%
barometer
mb
20260503034546 5 0 0.0 6.4 0.00 0.51 0.51 59 1011.6
20260503033053 5 11 0.0 4.8 0.00 0.51 0.51 57 1011.5
20260503031541 5 0 0.0 0.0 0.00 0.51 0.51 55 1011.6
20260503030043 5 0 0.0 3.2 0.00 0.51 0.51 53 1011.6
20260503024548 6 0 0.0 3.2 0.00 0.51 0.51 52 1011.6
20260503023047 6 0 0.0 3.2 0.00 0.51 0.51 52 1011.8
20260503021541 6 0 0.0 3.2 0.00 0.51 0.51 51 1011.9
20260503020045 6 118 0.0 4.8 0.00 0.51 0.51 52 1011.9
20260503014539 6 0 0.0 4.8 0.00 0.51 0.51 51 1011.8
20260503013038 6 0 0.0 6.4 0.00 0.51 0.51 51 1011.7
20260503011535 7 0 0.0 3.2 0.00 0.51 0.51 50 1011.6
20260503010041 7 0 0.0 6.4 0.00 0.51 0.51 49 1011.4
20260503004541 7 112 0.0 4.8 0.00 0.51 0.51 49 1011.3
20260503003044 7 155 3.2 9.7 0.00 0.51 0.51 47 1011.3
20260503001534 7 0 0.0 4.8 0.00 0.51 0.51 46 1011.1
20260503000042 8 140 1.6 11.3 0.00 0.51 0.51 45 1011.0
20260502234601 8 153 0.0 4.8 0.00 0.51 0.51 44 1011.1
20260502233041 8 0 1.6 9.7 0.00 0.51 0.51 44 1011.1
20260502231536 9 0 0.0 12.9 0.00 0.51 0.51 43 1011.0
20260502230043 9 0 4.8 12.9 0.00 0.51 0.51 40 1010.9
20260502224541 9 0 1.6 6.4 0.00 0.51 0.51 42 1010.8
20260502223053 10 0 0.0 16.1 0.00 0.51 0.51 41 1010.8
20260502221536 10 132 3.2 14.5 0.00 0.51 0.51 41 1010.7
20260502220035 10 141 6.4 16.1 0.00 0.51 0.51 40 1010.6
20260502214546 10 161 4.8 16.1 0.00 0.51 0.51 40 1010.5
20260502213046 11 0 3.2 12.9 0.00 0.51 0.51 41 1010.4
20260502211539 12 249 3.2 14.5 0.00 0.51 0.51 41 1010.2
20260502210046 11 233 3.2 11.3 0.00 0.51 0.51 40 1010.1
20260502204541 11 205 1.6 16.1 0.00 0.51 0.51 41 1010.1
20260502203049 12 234 3.2 14.5 0.00 0.51 0.51 39 1010.1
20260502201542 13 98 4.8 19.3 0.00 0.51 0.51 38 1010.1
20260502200037 12 142 8.0 22.5 0.00 0.51 0.51 39 1010.1
20260502194542 12 117 4.8 14.5 0.00 0.51 0.51 37 1010.4
20260502193055 13 225 3.2 16.1 0.00 0.51 0.51 41 1010.5
20260502191541 12 221 9.7 17.7 0.00 0.51 0.51 38 1010.8
20260502190044 12 301 1.6 11.3 0.00 0.51 0.51 42 1010.9
20260502184544 12 148 6.4 17.7 0.00 0.51 0.51 38 1010.9
20260502183035 13 215 4.8 16.1 0.00 0.51 0.51 39 1011.0
20260502181544 12 250 3.2 16.1 0.00 0.51 0.51 42 1011.0
20260502163035 12 154 8.0 19.3 0.00 0.51 0.51 46 1011.5
20260502161543 11 161 3.2 16.1 0.00 0.51 0.51 47 1011.7
20260502151606 10 154 6.4 20.9 0.00 0.51 0.51 59 1012.1
20260502123042 5 99 4.8 14.5 0.00 0.51 0.51 93 1011.9
20260502121541 5 111 6.4 16.1 0.00 0.51 0.51 93 1011.9
20260502114538 5 0 1.6 4.8 0.00 0.51 0.51 94 1012.0
20260502113042 5 0 0.0 4.8 0.00 0.51 0.51 94 1012.2
20260502111535 5 292 1.6 9.7 0.00 0.51 0.51 94 1012.1
20260502110047 6 231 1.6 4.8 0.00 0.51 0.51 94 1011.7
20260502104543 6 0 0.0 6.4 0.00 0.51 0.51 94 1011.4
20260502103042 6 0 0.0 4.8 0.00 0.51 0.51 94 1011.2
20260502101541 5 0 0.0 4.8 0.00 0.51 0.51 94 1011.1
20260502071535 6 0 0.0 6.4 0.13 0.25 0.25 92 1011.0
20260502070101 6 272 1.6 6.4 0.08 0.18 0.18 92 1011.1
20260502064546 6 0 1.6 6.4 0.10 0.15 0.15 92 1011.2
20260502063041 6 0 1.6 4.8 0.13 0.13 0.13 91 1011.5
20260502061540 6 0 1.6 9.7 0.13 0.13 0.13 91 1011.7
20260502060042 6 0 0.0 3.2 0.10 0.10 0.10 90 1011.7
20260502054558 6 0 0.0 4.8 0.05 0.05 0.05 90 1012.1
20260502053044 6 340 3.2 6.4 0.00 0.00 0.00 90 1011.8
20260502051547 6 0 0.0 9.7 0.00 0.00 0.00 89 1011.4
20260502050042 6 159 3.2 9.7 0.00 0.00 0.00 89 1011.6
20260502044535 6 0 0.0 4.8 0.00 0.00 0.00 88 1011.6
20260502043046 7 0 0.0 6.4 0.00 0.00 0.00 87 1011.4
20260502041608 7 130 4.8 12.9 0.00 0.00 0.00 86 1011.2
20260502040052 7 0 0.0 8.0 0.00 0.00 0.00 84 1011.2